TimePDT,TemperatureF,Dew PointF,Humidity,Sea Level PressureIn,VisibilityMPH,Wind Direction,Wind SpeedMPH,Gust SpeedMPH,PrecipitationIn,Events,Conditions,WindDirDegrees,DateUTC
12:15 AM,71.6,41.0,33,29.91,10.0,ESE,3.5,-,N/A,,Clear,110,2013-08-06 07:15:00
12:35 AM,69.8,39.2,33,29.91,10.0,Calm,Calm,-,N/A,,Clear,0,2013-08-06 07:35:00
12:55 AM,68.0,39.2,35,29.91,10.0,South,3.5,-,N/A,,Clear,190,2013-08-06 07:55:00
1:15 AM,66.2,39.2,37,29.91,10.0,WSW,4.6,-,N/A,,Clear,250,2013-08-06 08:15:00
1:35 AM,66.2,39.2,37,29.91,10.0,WSW,3.5,-,N/A,,Clear,250,2013-08-06 08:35:00
1:55 AM,66.2,39.2,37,29.91,10.0,Calm,Calm,-,N/A,,Clear,0,2013-08-06 08:55:00
2:15 AM,64.4,39.2,40,29.91,10.0,Calm,Calm,-,N/A,,Clear,0,2013-08-06 09:15:00
2:35 AM,66.2,39.2,37,29.91,10.0,South,3.5,-,N/A,,Clear,170,2013-08-06 09:35:00
2:55 AM,62.6,37.4,39,29.92,10.0,SSW,9.2,-,N/A,,Clear,200,2013-08-06 09:55:00
3:15 AM,62.6,37.4,39,29.92,10.0,South,5.8,-,N/A,,Clear,180,2013-08-06 10:15:00
3:35 AM,62.6,37.4,39,29.92,10.0,South,5.8,-,N/A,,Clear,180,2013-08-06 10:35:00
3:55 AM,60.8,37.4,42,29.92,10.0,South,4.6,-,N/A,,Clear,180,2013-08-06 10:55:00
4:15 AM,60.8,37.4,42,29.92,10.0,SSE,3.5,-,N/A,,Clear,160,2013-08-06 11:15:00
4:35 AM,60.8,37.4,42,29.92,10.0,SE,5.8,-,N/A,,Clear,140,2013-08-06 11:35:00
4:55 AM,59.0,35.6,42,29.93,10.0,South,6.9,-,N/A,,Clear,180,2013-08-06 11:55:00
5:15 AM,60.8,35.6,39,29.93,10.0,SSW,8.1,-,N/A,,Clear,200,2013-08-06 12:15:00
5:35 AM,60.8,37.4,42,29.94,10.0,South,6.9,-,N/A,,Clear,180,2013-08-06 12:35:00
5:55 AM,60.8,37.4,42,29.95,10.0,SSE,6.9,-,N/A,,Clear,160,2013-08-06 12:55:00
6:15 AM,59.0,35.6,42,29.95,10.0,SE,6.9,-,N/A,,Clear,130,2013-08-06 13:15:00
6:35 AM,59.0,35.6,42,29.96,10.0,SE,5.8,-,N/A,,Clear,130,2013-08-06 13:35:00
6:55 AM,60.8,35.6,39,29.96,10.0,SE,4.6,-,N/A,,Clear,140,2013-08-06 13:55:00
7:15 AM,62.6,37.4,39,29.96,10.0,SSE,5.8,-,N/A,,Clear,160,2013-08-06 14:15:00
7:35 AM,66.2,37.4,35,29.97,10.0,South,5.8,-,N/A,,Clear,170,2013-08-06 14:35:00
7:55 AM,68.0,39.2,35,29.97,10.0,South,4.6,-,N/A,,Clear,180,2013-08-06 14:55:00
8:15 AM,69.8,41.0,35,29.97,10.0,South,4.6,-,N/A,,Clear,190,2013-08-06 15:15:00
8:35 AM,71.6,41.0,33,29.98,10.0,SSW,5.8,-,N/A,,Clear,210,2013-08-06 15:35:00
8:55 AM,71.6,41.0,33,29.98,10.0,SSW,5.8,-,N/A,,Clear,210,2013-08-06 15:55:00
9:15 AM,73.4,42.8,33,29.98,10.0,South,8.1,-,N/A,,Clear,180,2013-08-06 16:15:00
9:35 AM,75.2,42.8,31,29.98,10.0,SSW,8.1,-,N/A,,Clear,200,2013-08-06 16:35:00
9:55 AM,77.0,42.8,29,29.98,10.0,SSW,10.4,-,N/A,,Clear,200,2013-08-06 16:55:00
10:15 AM,78.8,44.6,30,29.98,10.0,SW,6.9,-,N/A,,Clear,230,2013-08-06 17:15:00
10:35 AM,80.6,44.6,28,29.98,10.0,SSW,4.6,-,N/A,,Clear,200,2013-08-06 17:35:00
10:55 AM,80.6,44.6,28,29.98,10.0,SSW,5.8,-,N/A,,Clear,200,2013-08-06 17:55:00
11:15 AM,82.4,44.6,26,29.98,10.0,WSW,5.8,-,N/A,,Clear,250,2013-08-06 18:15:00
11:35 AM,82.4,44.6,26,29.97,10.0,SW,5.8,-,N/A,,Clear,230,2013-08-06 18:35:00
11:55 AM,82.4,44.6,26,29.97,10.0,SW,3.5,-,N/A,,Clear,220,2013-08-06 18:55:00
12:15 PM,84.2,44.6,25,29.96,10.0,WNW,8.1,-,N/A,,Clear,290,2013-08-06 19:15:00
12:35 PM,84.2,46.4,27,29.96,10.0,West,9.2,-,N/A,,Clear,270,2013-08-06 19:35:00
12:55 PM,86.0,46.4,25,29.95,10.0,West,8.1,-,N/A,,Clear,280,2013-08-06 19:55:00
1:15 PM,87.8,48.2,25,29.95,10.0,NW,9.2,-,N/A,,Clear,310,2013-08-06 20:15:00
1:35 PM,89.6,48.2,24,29.94,10.0,NW,9.2,-,N/A,,Clear,310,2013-08-06 20:35:00
1:55 PM,89.6,48.2,24,29.94,10.0,NW,10.4,-,N/A,,Clear,310,2013-08-06 20:55:00
2:15 PM,89.6,44.6,21,29.93,10.0,WNW,10.4,-,N/A,,Clear,290,2013-08-06 21:15:00
2:35 PM,91.4,46.4,21,29.92,10.0,WNW,11.5,16.1,N/A,,Clear,290,2013-08-06 21:35:00
2:55 PM,91.4,46.4,21,29.92,10.0,NW,10.4,-,N/A,,Clear,310,2013-08-06 21:55:00
3:15 PM,93.2,48.2,21,29.91,10.0,WNW,12.7,16.1,N/A,,Clear,300,2013-08-06 22:15:00
3:35 PM,93.2,48.2,21,29.91,10.0,WNW,12.7,16.1,N/A,,Clear,300,2013-08-06 22:35:00
3:55 PM,93.2,48.2,21,29.90,10.0,WNW,10.4,-,N/A,,Clear,300,2013-08-06 22:55:00
4:15 PM,95.0,46.4,19,29.90,10.0,NNW,11.5,-,N/A,,Clear,340,2013-08-06 23:15:00
4:35 PM,95.0,46.4,19,29.89,10.0,NW,9.2,-,N/A,,Clear,320,2013-08-06 23:35:00
4:55 PM,93.2,46.4,20,29.89,10.0,North,11.5,-,N/A,,Clear,350,2013-08-06 23:55:00
5:15 PM,93.2,48.2,21,29.89,10.0,NW,11.5,-,N/A,,Clear,320,2013-08-07 00:15:00
5:35 PM,93.2,46.4,20,29.89,10.0,North,10.4,-,N/A,,Clear,350,2013-08-07 00:35:00
5:55 PM,93.2,46.4,20,29.88,10.0,NNW,9.2,-,N/A,,Clear,340,2013-08-07 00:55:00
6:15 PM,93.2,46.4,20,29.88,10.0,NW,10.4,-,N/A,,Clear,320,2013-08-07 01:15:00
6:35 PM,91.4,46.4,21,29.88,10.0,NNW,8.1,-,N/A,,Clear,340,2013-08-07 01:35:00
6:55 PM,91.4,46.4,21,29.88,10.0,NNW,8.1,-,N/A,,Clear,330,2013-08-07 01:55:00
7:15 PM,91.4,46.4,21,29.89,10.0,NNW,5.8,-,N/A,,Clear,330,2013-08-07 02:15:00
7:35 PM,89.6,48.2,24,29.89,10.0,NW,4.6,-,N/A,,Clear,310,2013-08-07 02:35:00
7:55 PM,86.0,48.2,27,29.89,10.0,West,4.6,-,N/A,,Clear,270,2013-08-07 02:55:00
8:15 PM,84.2,46.4,27,29.90,10.0,West,5.8,-,N/A,,Clear,260,2013-08-07 03:15:00
8:35 PM,82.4,46.4,28,29.90,10.0,West,6.9,-,N/A,,Clear,270,2013-08-07 03:35:00
8:55 PM,80.6,44.6,28,29.91,10.0,WSW,10.4,-,N/A,,Clear,240,2013-08-07 03:55:00
9:15 PM,78.8,44.6,30,29.92,10.0,West,6.9,-,N/A,,Clear,260,2013-08-07 04:15:00
9:35 PM,78.8,42.8,28,29.93,10.0,SW,6.9,-,N/A,,Clear,230,2013-08-07 04:35:00
9:55 PM,75.2,41.0,29,29.94,10.0,South,3.5,-,N/A,,Clear,180,2013-08-07 04:55:00
10:15 PM,73.4,41.0,31,29.95,10.0,SE,5.8,-,N/A,,Clear,140,2013-08-07 05:15:00
10:35 PM,73.4,39.2,29,29.95,10.0,ESE,5.8,-,N/A,,Clear,110,2013-08-07 05:35:00
10:55 PM,71.6,39.2,31,29.96,10.0,South,5.8,-,N/A,,Clear,180,2013-08-07 05:55:00
11:15 PM,71.6,37.4,29,29.96,10.0,SE,5.8,-,N/A,,Clear,140,2013-08-07 06:15:00
11:35 PM,69.8,37.4,31,29.97,10.0,SSW,9.2,-,N/A,,Clear,200,2013-08-07 06:35:00
11:55 PM,69.8,37.4,31,29.97,10.0,South,8.1,-,N/A,,Clear,190,2013-08-07 06:55:00